Simultaneous Nadir Overpasses (SNOs) Predictions

Prediction of SNOs between GOES-14 and AQUA Satellite Orbit:

Table of predicted SNOs for the next 14.0 days since TLE Epoch: 10/30/2021
Index Date Time (GOES-14) GOES-14 Lat,Lon AQUA Lat,Lon Distance(km) Time Diff (sec)
1 10/30/2021 08:14:51 0.20,-104.30 -0.70,-100.23 464.21 80
2 10/30/2021 20:36:14 -0.17,-104.16 -0.44,-105.41 142.12 80
3 11/01/2021 20:26:45 -0.17,-104.16 0.18,-102.45 194.03 80
4 11/02/2021 08:48:01 0.15,-104.34 0.87,-107.62 374.14 80
5 11/04/2021 08:35:51 0.15,-104.34 0.24,-104.67 38.35 80
6 11/06/2021 08:21:01 0.16,-104.33 -0.40,-101.72 297.05 80
7 11/06/2021 20:42:25 -0.14,-104.14 -0.72,-106.91 314.46 80
8 11/08/2021 20:32:54 -0.14,-104.13 -0.13,-103.94 21.25 80
9 11/10/2021 20:20:44 -0.14,-104.13 0.54,-101.00 356.95 80
10 11/11/2021 08:42:01 0.12,-104.34 0.49,-106.17 207.13 80
